RADUGA 32 [-]

Last updated on Wed Jun 28 2023 00:02:57 GMT+0000 (Coordinated Universal Time)

1 23448U 94087A 23177.70411961 -.00000071 00000+0 00000+0 0 9995 2 23448 14.5895 359.1766 0005441 195.0336 45.2840 1.00280871122042

Satellite not in orbit

RADUGA 32 [-]